Regional Weather Roundup
Issued by NWS

Home | Current Version | Previous Version | Text Only | Print | Product List | Glossary On
Versions: 1 2 3 4 5 6 7 8 9 10 11 12 13 14 15 16 17 18 19 20 21 22 23 24 25 26 27 28 29 30 31 32 33 34 35 36 37 38 39 40 41 42 43 44 45 46 47 48 49 50
000
ASUS43 KMKX 300011
RWRWI

WISCONSIN REGIONAL WEATHER ROUNDUP
NATIONAL WEATHER SERVICE MILWAUKEE/SULLIVAN WI
700 PM CDT FRI AUG 29 2014

NOTE: "FAIR" INDICATES FEW OR NO CLOUDS BELOW 12,000 FEET WITH NO
SIGNIFICANT WEATHER AND/OR OBSTRUCTIONS TO VISIBILITY.

WIZ001-002-006>008-014>016-023>028-300100-
NORTHWEST WISCONSIN

CITY           SKY/WX    TMP DP  RH WIND       PRES   REMARKS
SUPERIOR ARPT  CLOUDY    61  61  99 NE5       29.76R FOG
6HR MIN TEMP:  61; 6HR MAX TEMP:  63; 6HR PCP:  0.08;

ASHLAND        CLOUDY    67  66  97 NW3       29.77R FOG
6HR MIN TEMP:  66; 6HR MAX TEMP:  69; 6HR PCP:  0.12;

HAYWARD        CLOUDY    68  66  93 S5        29.77F
6HR MIN TEMP:  65; 6HR MAX TEMP:  69; 6HR PCP:  0.14;

SIREN          LGT RAIN  68  67  96 CALM      29.76S
6HR MIN TEMP:  66; 6HR MAX TEMP:  69; 6HR PCP:  0.14;

RICE LAKE      RAIN      68  66  93 CALM      29.77F
6HR MIN TEMP:  67; 6HR MAX TEMP:  73;

LADYSMITH      RAIN      66  65  96 SE7       29.81R
6HR MIN TEMP:  65; 6HR MAX TEMP:  75; 6HR PCP:  0.64;

EAU CLAIRE     CLOUDY    71  69  93 S6        29.78R
6HR MIN TEMP:  70; 6HR MAX TEMP:  82; 6HR PCP:  0.13;

MENOMONIE      CLOUDY    69  66  93 SE5       29.77R
6HR MIN TEMP:  69; 6HR MAX TEMP:  84; 6HR PCP:  0.53;

NEW RICHMOND   CLOUDY    69  68  95 CALM      29.77R
6HR MIN TEMP:  69; 6HR MAX TEMP:  74; 6HR PCP:  0.09;

OSCEOLA        LGT RAIN  69  69 100 CALM      29.79S
6HR MIN TEMP:  68; 6HR MAX TEMP:  73; 6HR PCP:  0.38;

$$

WIZ003>005-009-010-017-018-300100-
NORTH CENTRAL WISCONSIN

CITY           SKY/WX    TMP DP  RH WIND       PRES   REMARKS
WOODRUFF       CLOUDY    69  66  93 S12       29.83S
6HR MIN TEMP:  64; 6HR MAX TEMP:  72; 6HR PCP:  0.12;

RHINELANDER    MOCLDY    68  66  93 N5        29.84F FOG
6HR MIN TEMP:  63; 6HR MAX TEMP:  71;

EAGLE RIVER    MOCLDY    68  66  94 S3        29.83F
LAND O LAKES   MOCLDY    68  66  92 S5        29.83F
6HR MIN TEMP:  65; 6HR MAX TEMP:  72;

PHILLIPS       CLOUDY    65  63  94 S9        29.81R
6HR MIN TEMP:  64; 6HR MAX TEMP:  74; 6HR PCP:  0.28;

TOMAHAWK       MOCLDY    69  67  92 W7        29.84R FOG
6HR MIN TEMP:  64; 6HR MAX TEMP:  72;

MEDFORD        CLOUDY    66  64  94 NW8       29.85R
6HR MIN TEMP:  66; 6HR MAX TEMP:  77; 6HR PCP:  0.45;

MERRILL        PTCLDY    72  70  95 CALM      29.80S FOG
6HR MIN TEMP:  65; 6HR MAX TEMP:  76;

$$

WIZ029-030-035-036-043>047-300100-
CENTRAL WISCONSIN

CITY           SKY/WX    TMP DP  RH WIND       PRES   REMARKS
WAUSAU         TSTM      74  69  85 SW26G40   29.80R
6HR MIN TEMP:  67; 6HR MAX TEMP:  80; 6HR PCP:  0.01;

MOSINEE        MOCLDY    72  64  78 W14G29    29.81S
MARSHFIELD     PTCLDY    74  65  73 E5        29.79S
6HR MIN TEMP:  73; 6HR MAX TEMP:  83;

STEVENS POINT  RAIN      71  67  88 W3        29.80S
6HR MIN TEMP:  70; 6HR MAX TEMP:  82; 6HR PCP:  0.20;

WAUPACA        PTCLDY    82  71  70 S8        29.80S HX  85
6HR MIN TEMP:  78; 6HR MAX TEMP:  87;

WAUTOMA        PTCLDY    81  72  74 S8        29.81R HX  85
6HR MIN TEMP:  81; 6HR MAX TEMP:  87; 6HR PCP: TRACE;

WISC RAPIDS    PTCLDY    80  71  74 S6        29.80F HX  84
6HR MIN TEMP:  74; 6HR MAX TEMP:  86;

CAMP DOUGLAS   PTCLDY    81  73  77 S3        29.78F HX  85
6HR MIN TEMP:  79; 6HR MAX TEMP:  86;

$$

WIZ011>013-019>022-031-037>040-048>050-300100-
NORTHEAST WISCONSIN

CITY           SKY/WX    TMP DP  RH WIND       PRES   REMARKS
ANTIGO         HVY RAIN  66  65  97 N9        29.82F VSB 1
6HR MIN TEMP:  64; 6HR MAX TEMP:  75; 6HR PCP:  1.21;

STURGEON BAY   MOCLDY    70  64  83 S20G26    29.84S
6HR MIN TEMP:  70; 6HR MAX TEMP:  72;

GREEN BAY      PTCLDY    78  72  81 SE13      29.81F HX  80
6HR MIN TEMP:  78; 6HR MAX TEMP:  84;

MANITOWOC      CLOUDY    71  68  90 S21       29.85F
6HR MIN TEMP:  71; 6HR MAX TEMP:  74; 6HR PCP: TRACE;

APPLETON       MOCLDY    81  68  65 S10       29.82F HX  83
CLINTONVILLE   PTCLDY    81  70  69 S8        29.79F HX  84
OSHKOSH        CLOUDY    79  70  74 S13       29.81S HX  82
6HR MIN TEMP:  79; 6HR MAX TEMP:  86;

$$

WIZ032>034-041-042-053>061-300100-
SOUTHWEST WISCONSIN

CITY           SKY/WX    TMP DP  RH WIND       PRES   REMARKS
LA CROSSE      CLOUDY    76  65  68 W24G31    29.76S
6HR MIN TEMP:  76; 6HR MAX TEMP:  88; 6HR PCP: TRACE;

SPARTA         MOCLDY    81  67  63 S6        29.78R HX  83
6HR MIN TEMP:  79; 6HR MAX TEMP:  85;

VIROQUA        MOCLDY    79  70  73 SE7       29.80R HX  81
6HR MIN TEMP:  79; 6HR MAX TEMP:  84;

BOSCOBEL       MOCLDY    84  68  58 S6        29.78R HX  87
6HR MIN TEMP:  84; 6HR MAX TEMP:  90;

PRAIRIE DU CHI CLOUDY    82  66  57 SE7       29.77R HX  85
PLATTEVILLE    FAIR      80  72  76 SE7       29.82S HX  83
6HR MIN TEMP:  80; 6HR MAX TEMP:  85;

$$

WIZ056-057-062-063-064-067-068-300100-
SOUTH CENTRAL WISCONSIN

CITY           SKY/WX    TMP DP  RH WIND       PRES   REMARKS
BARABOO/DELLS  CLEAR     80  68  67 S6        29.81S HX  83
6HR MIN TEMP:  80; 6HR MAX TEMP:  87;

LONE ROCK      PTCLDY    85  72  65 SE9       29.79S HX  91
6HR MIN TEMP:  85; 6HR MAX TEMP:  91;

WATERTOWN      PTCLDY    79  72  79 S6        29.84S HX  82
6HR MIN TEMP:  79; 6HR MAX TEMP:  84;

MADISON        PTCLDY    82  69  64 S12       29.82S HX  85
6HR MIN TEMP:  82; 6HR MAX TEMP:  85;

MIDDLETON      FAIR      82  70  67 S9        29.83S HX  85
6HR MIN TEMP:  82; 6HR MAX TEMP:  87;

MONROE         CLEAR     79  72  78 SE9       29.84S HX  82
JANESVILLE     CLEAR     82  70  65 S9        29.84F HX  86
$$

WIZ051-052-058>065-066-070>072-300100-
SOUTHEAST WISCONSIN

CITY           SKY/WX    TMP DP  RH WIND       PRES   REMARKS
MILWAUKEE      PTCLDY    77  70  79 S14       29.86F
6HR MIN TEMP:  76; 6HR MAX TEMP:  82;

WAUKESHA       MOCLDY    77  72  83 SE8       29.87S
MILWAUKEE/TIMM NOT AVBL
RACINE         PTCLDY    75  71  87 S13G22    29.89S
6HR MIN TEMP:  75; 6HR MAX TEMP:  78;

BURLINGTON     PTCLDY    77  71  82 S3        29.86S
6HR MIN TEMP:  77; 6HR MAX TEMP:  83;

KENOSHA        CLEAR     78  70  76 S16       29.87F HX  80
6HR MIN TEMP:  78; 6HR MAX TEMP:  84;

FOND DU LAC    CLOUDY    80  70  71 S10       29.83S HX  83
6HR MIN TEMP:  79; 6HR MAX TEMP:  85;

SHEBOYGAN      CLOUDY    73  69  87 S12       29.86S
6HR MIN TEMP:  73; 6HR MAX TEMP:  82; 6HR PCP:  0.01;

WEST BEND      CLOUDY    77  70  78 SE6       29.85S
JUNEAU         PTCLDY    79  71  76 SE10      29.85S HX  82
6HR MIN TEMP:  79; 6HR MAX TEMP:  83;

$$

LSZ147-162-300100-
LAKE SUPERIOR

STATION/POSITION TIME  TEMP    WIND        PRES    WAVE
                       AIR SEA DIR/SP/G            HT/PER
                 (UTC) (F)     (DEG/KT/KT) (MB)    (FT/S)
W MID LAKE BUOY  2350   59 56   40/  2/  2 1007.5R   1
DEVILS ISLAND    0000   62      CALM  /  1 1007.6F
PORT WING        2300   64      20/  6/  7 1008.1R
SAXON HARBOR     2300   67      CALM  /  4 1007.8
$$

LMZ867-665-643>646-300100-
LAKE MICHIGAN

STATION/POSITION TIME  TEMP    WIND        PRES    WAVE
                       AIR SEA DIR/SP/G            HT/PER
                 (UTC) (F)     (DEG/KT/KT) (MB)    (FT/S)
N MID LAKE BUOY  2350   68 65  190/ 14/ 16 1010.2F   4/ 6
NORTHPORT PIER   2300   69     160/ 10/ 17 1010.5S
SISTER BAY       2341   71     180/ 23/ 29   N/A
KEWAUNEE LAKESHO 2300   67     180/ 13/ 15 1010.1R
SHEBOYGAN LAKESH 0000   68 69  170/ 11/ 11 1011.2F
ATWATER BUOY     0000   72     170/ 16/ 19 1012.3R
MILWAUKEE LAKESH 2300   72     150/ 15/ 17   N/A
S MID LAKE BUOY  2350   72 69  160/ 16/ 19 1011.9F   2/ 4
KENOSHA   LAKESH 0000   73     180/ 17/ 20 1010.8F
$$

TC  - TEMPERATURE IN CELSIUS
VSB - VISIBILITY IN STATUTE MILES
WCI - WIND CHILL INDEX
HX  - HEAT INDEX



USA.gov is the U.S. government's official web portal to all federal, state and local government web resources and services.